Simultaneous Nadir Overpasses (SNOs) Predictions

Prediction of SNOs between GOES-15 and METOP-A Satellite Orbit:

Table of predicted SNOs for the next 14.0 days since TLE Epoch: 2/13/2016
Index Date Time (GOES-15) GOES-15 Lat,Lon METOP-A Lat,Lon Distance(km) Time Diff (sec)
1 02/15/2016 06:42:40 -0.04,-135.34 -0.63,-137.99 301.47 80
2 02/16/2016 06:19:22 -0.04,-135.34 0.48,-133.00 266.61 80
3 02/17/2016 18:38:14 0.04,-135.30 0.57,-137.55 257.14 80
4 02/18/2016 18:20:16 0.04,-135.30 -0.60,-132.57 311.08 80
5 02/20/2016 06:39:18 -0.04,-135.31 -0.48,-137.16 211.38 80
6 02/21/2016 06:15:59 -0.04,-135.31 0.63,-132.17 356.42 80
7 02/22/2016 18:34:53 0.04,-135.26 0.35,-136.74 168.10 80
8 02/23/2016 18:16:54 0.04,-135.25 -0.76,-131.75 399.80 80
9 02/25/2016 06:35:56 -0.04,-135.27 -0.26,-136.35 122.98 80
10 02/26/2016 06:12:38 -0.04,-135.25 0.86,-131.36 444.41 80




NCC Satellite Simultaneous Nadir Overpasses (SNOs) Prediction Service
